Location: Cieszkowy
(50.3290°N, 20.5336°E)
Time: 22:52:48
(UTC+00:00)

Cosmos 2082 - Pass Details

Date: 15 June 2024
Orbit: 834 x 853 km, 71.0° (Epoch: 18 July)

Event Time Altitude Azimuth Distance (km) Brightness Sun altitude
Exits shadow 00:03:41 20° 195° (SSW) 1,828 4.8 -14.0°
Maximum altitude 00:07:35 71° 115° (ESE) 886 3.8 -13.7°
Drops below altitude 10° 00:13:11 10° 33° (NNE) 2,455 7.5 -13.4°
Sets 00:15:38 0° 31° (NNE) 3,393 8.8 -13.3°
